Weather History for Kirksville, MO

Change the Weather History Date:

Sunday, October 21, 2012

  Actual Average Record
Temperature  
Mean Temperature 61 °F 51 °F  
Max Temperature 78 °F 62 °F 84 °F (1978)
Min Temperature 44 °F 41 °F 22 °F (1930)
Degree Days  
Heating Degree Days 4 14  
Month to date heating degree days 274 224  
Since 1 July heating degree days 410 331  
Cooling Degree Days 0 0  
Month to date cooling degree days 0 10  
Year to date cooling degree days 1300 937  
Growing Degree Days 12 (Base 50)    
Moisture  
Dew Point 54 °F    
Average Humidity 74    
Maximum Humidity 92    
Minimum Humidity 56    
Precipitation  
Precipitation 0.00 in 0.11 in 1.33 in (1941)
Month to date precipitation 2.60 2.34  
Year to date precipitation 23.36 33.86  
Sea Level Pressure  
Sea Level Pressure 29.87 in    
Wind  
Wind Speed 8 mph (SE)    
Max Wind Speed 16 mph    
Max Gust Speed 20 mph    
Visibility 10 miles    
Events      
T = Trace of Precipitation, MM = Missing Value Source: NWS Daily Summary

Daily Weather History Graph

Daily Weather History Graph

Search for Another Location

Airport:

Trip Planner

Search our weather history database for the weather conditions in past years. The results will help you decide how hot, cold, wet, or windy it might be!

Date:

Astronomy

Oct. 21, 2012 Rise Set
Actual Time 7:27 AM CDT 6:21 PM CDT
Civil Twilight 7:00 AM CDT 6:48 PM CDT
Nautical Twilight 6:28 AM CDT 7:20 PM CDT
Astronomical Twilight 5:57 AM CDT 7:51 PM CDT
Moon 1:49 PM CDT (10/21) No Moon Set
Length of Visible Light 11h 48m
Length of Day
10h 53m
Waxing Crescent, 45% of the Moon is Illuminated
Oct 21
Waxing Crescent
Oct 21
First Quarter
Oct 29
Full
Nov 6
Last Quarter
Nov 13
New

Hourly Weather History & Observations

Time (CDT) Temp. Windchill Dew Point Humidity Pressure Visibility Wind Dir Wind Speed Gust Speed Precip Events Conditions
12:55 AM 48.0 °F - 44.1 °F 86% 29.87 in 10.0 mi ESE 6.9 mph - N/A   Clear
1:55 AM 46.9 °F - 43.0 °F 86% 29.86 in 10.0 mi East 6.9 mph - N/A   Clear
2:55 AM 46.9 °F - 43.0 °F 86% 29.86 in 10.0 mi ESE 6.9 mph - N/A   Clear
3:55 AM 46.0 °F 42.5 °F 43.0 °F 89% 29.86 in 10.0 mi ESE 6.9 mph - N/A   Clear
4:55 AM 46.0 °F 42.5 °F 43.0 °F 89% 29.86 in 10.0 mi SE 6.9 mph - N/A   Clear
5:55 AM 46.0 °F 42.5 °F 43.0 °F 89% 29.87 in 10.0 mi SE 6.9 mph - N/A   Clear
6:55 AM 46.0 °F 42.5 °F 43.0 °F 89% 29.87 in 10.0 mi SE 6.9 mph - N/A   Clear
7:55 AM 45.0 °F 41.8 °F 43.0 °F 93% 29.88 in 10.0 mi SE 5.8 mph - N/A   Clear
8:55 AM 52.0 °F - 46.9 °F 83% 29.90 in 10.0 mi SSE 8.1 mph - N/A   Clear
9:55 AM 59.0 °F - 50.0 °F 72% 29.91 in 10.0 mi SSE 6.9 mph - N/A   Clear
10:55 AM 66.0 °F - 52.0 °F 60% 29.90 in 10.0 mi SSE 5.8 mph - N/A   Clear
11:55 AM 70.0 °F - 55.0 °F 59% 29.90 in 10.0 mi SSE 6.9 mph - N/A   Clear
12:55 PM 73.0 °F - 57.9 °F 59% 29.88 in 10.0 mi SSE 8.1 mph - N/A   Clear
1:55 PM 75.9 °F - 60.1 °F 58% 29.85 in 10.0 mi SE 9.2 mph - N/A   Clear
2:55 PM 77.0 °F - 61.0 °F 58% 29.84 in 10.0 mi SE 13.8 mph - N/A   Clear
3:55 PM 78.1 °F - 63.0 °F 60% 29.83 in 10.0 mi SE 12.7 mph - N/A   Clear
4:55 PM 75.0 °F - 63.0 °F 66% 29.83 in 10.0 mi SE 9.2 mph - N/A   Mostly Cloudy
5:55 PM 73.0 °F - 63.0 °F 71% 29.84 in 10.0 mi SSE 9.2 mph - N/A   Overcast
6:55 PM 72.0 °F - 63.0 °F 73% 29.85 in 10.0 mi SSE 9.2 mph - N/A   Overcast
7:55 PM 71.1 °F - 62.1 °F 73% 29.86 in 10.0 mi SSE 9.2 mph - N/A   Overcast
8:55 PM 71.1 °F - 62.1 °F 73% 29.87 in 10.0 mi SSE 6.9 mph - N/A   Overcast
9:55 PM 70.0 °F - 62.1 °F 76% 29.87 in 10.0 mi ESE 5.8 mph - N/A   Overcast
10:55 PM 69.1 °F - 62.1 °F 78% 29.87 in 10.0 mi SSE 5.8 mph - N/A   Overcast
11:55 PM 68.0 °F - 62.1 °F 81% 29.87 in 10.0 mi SSE 8.1 mph - N/A   Overcast